Torna al catalogo

TITAN 3C TRANSTAGE DEB

AttivoMEO
NORAD 38702·DEBRIS·🇺🇸 United States

Lanciato Sep 26, 1968 da Cape Canaveral Space Force Station

Loading…

Prossimi Passaggi (prossime 24 ore)

TLE

AggiornatoSource: Space-Track

Epoca: Sep 13, 2026, 15:18 UTC

1 38702U 68081AC  26256.63809173 -.00000003  00000-0  00000-0 0  9995
2 38702   1.3131  52.2025 0222295  37.8872 324.5559  1.02228046 70627

Traccia TITAN 3C TRANSTAGE DEB in tempo reale con AllMySat

Download on the App Store